Meridian, MS

12:53 PM CDT on October 19, 2019 (GMT -0500)
Key

Weather History for KMEI - August, 2019

Change the Weather History Date:

Tuesday, August 20, 2019

  Actual Average Record
Temperature  
Mean Temperature 81 °F 80 °F  
Max Temperature 93 °F 92 °F 104 °F (1990)
Min Temperature 69 °F 69 °F 56 °F (1976)
Degree Days  
Heating Degree Days 0 0  
Month to date heating degree days 0 0  
Since 1 June heating degree days 0 0  
Since 1 July heating degree days 0 0  
Cooling Degree Days 16 15  
Month to date cooling degree days 383 314  
Year to date cooling degree days 1898 1461  
Since 1 June cooling degree days 1402 1178  
Growing Degree Days 31 (Base 50)    
Moisture  
Dew Point 70 °F    
Average Humidity 80    
Maximum Humidity 97    
Minimum Humidity 50    
Precipitation  
Precipitation 0.00 in 0.13 in 3.35 in (1963)
Month to date precipitation 3.26 2.73  
Year to date precipitation 41.84 37.70  
Sea Level Pressure  
Sea Level Pressure 30.07 in    
Wind  
Wind Speed 2 mph ()    
Max Wind Speed 15 mph    
Max Gust Speed 18 mph    
Visibility 7.8 miles    
Events Fog    
T = Trace of Precipitation, MM = Missing Value Source: Averaged Metar Reports

Daily Weather History Graph

Daily Weather History Graph

Search for Another Location

Airport or City:

Astronomy

Aug. 20, 2019 Rise Set
Actual Time 6:22 AM CDT 7:34 PM CDT
Civil Twilight 5:56 AM CDT 7:59 PM CDT
Nautical Twilight 5:26 AM CDT 8:29 PM CDT
Astronomical Twilight 4:54 AM CDT 9:01 PM CDT
Moon 10:39 PM CDT (8/20) 10:45 AM CDT (8/20)
Length of Visible Light 14h 02m
Length of Day
13h 11m
Waning Gibbous, 77% of the Moon is Illuminated
Aug 20
Waning Gibbous
Aug 23
Last Quarter
Aug 30
New
Sep 5
First Quarter
Sep 13
Full

Hourly Weather History & Observations

Time (CDT) Temp. Heat Index Dew Point Humidity Pressure Visibility Wind Dir Wind Speed Gust Speed Precip Events Conditions
12:58 AM 73.0 °F - 70.0 °F 90% 30.03 in 10.0 mi Calm Calm - N/A   Clear
1:58 AM 73.0 °F - 70.0 °F 90% 30.04 in 10.0 mi Calm Calm - N/A   Clear
2:58 AM 71.1 °F - 69.1 °F 93% 30.04 in 10.0 mi Calm Calm - N/A   Clear
3:47 AM 71.1 °F - 68.0 °F 90% 30.06 in 10.0 mi Calm Calm - N/A   Partly Cloudy
3:58 AM 72.0 °F - 69.1 °F 91% 30.05 in 10.0 mi Calm Calm - N/A   Clear
4:58 AM 70.0 °F - 66.9 °F 90% 30.05 in 10.0 mi NNW 3.5 mph - N/A   Clear
5:58 AM 70.0 °F - 68.0 °F 93% 30.07 in 10.0 mi SSE 4.6 mph - N/A   Partly Cloudy
6:17 AM 70.0 °F - 66.9 °F 90% 30.10 in 10.0 mi SSW 4.6 mph - N/A   Mostly Cloudy
6:39 AM 70.0 °F - 68.0 °F 93% 30.10 in 0.2 mi Calm Calm - N/A Fog Fog
6:58 AM 70.0 °F - 68.0 °F 93% 30.09 in 0.2 mi Calm Calm - N/A Fog Fog
7:02 AM 70.0 °F - 68.0 °F 93% 30.10 in 0.5 mi Calm Calm - N/A Fog Fog
7:21 AM 71.1 °F - 69.1 °F 93% 30.11 in 1.0 mi Calm Calm - N/A   Mist
7:34 AM 71.1 °F - 69.1 °F 93% 30.11 in 1.0 mi Calm Calm - N/A   Mist
7:40 AM 71.1 °F - 69.1 °F 93% 30.11 in 1.0 mi South 3.5 mph - N/A   Clear
7:44 AM 71.1 °F - 69.1 °F 93% 30.11 in 1.0 mi South 3.5 mph - N/A   Mist
7:58 AM 71.1 °F - 69.1 °F 93% 30.09 in 2.0 mi South 3.5 mph - N/A   Scattered Clouds
8:03 AM 71.1 °F - 69.1 °F 93% 30.10 in 9.0 mi SSW 3.5 mph - N/A   Mostly Cloudy
8:44 AM 73.9 °F - 72.0 °F 93% 30.09 in 10.0 mi Calm Calm - N/A   Scattered Clouds
8:58 AM 75.0 °F - 72.0 °F 90% 30.08 in 10.0 mi SW 4.6 mph - N/A   Scattered Clouds
9:58 AM 81.0 °F 85.8 °F 73.0 °F 77% 30.08 in 10.0 mi Calm Calm - N/A   Scattered Clouds
10:58 AM 84.9 °F 90.7 °F 72.0 °F 65% 30.09 in 10.0 mi Calm Calm - N/A   Scattered Clouds
11:58 AM 87.1 °F 93.6 °F 72.0 °F 61% 30.10 in 10.0 mi ESE 6.9 mph - N/A   Mostly Cloudy
12:58 PM 90.0 °F 96.4 °F 71.1 °F 54% 30.08 in 10.0 mi ESE 9.2 mph - N/A   Scattered Clouds
1:58 PM 91.0 °F 99.3 °F 73.0 °F 55% 30.05 in 10.0 mi Variable 5.8 mph - N/A   Scattered Clouds
2:58 PM 91.9 °F 98.4 °F 71.1 °F 50% 30.03 in 10.0 mi South 8.1 mph - N/A   Partly Cloudy
3:58 PM 91.9 °F 99.5 °F 72.0 °F 52% 30.01 in 10.0 mi North - - N/A   Partly Cloudy
4:58 PM 91.9 °F 100.7 °F 73.0 °F 54% 30.00 in 10.0 mi SSW 5.8 mph - N/A   Clear
5:58 PM 91.0 °F 99.3 °F 73.0 °F 55% 30.01 in 10.0 mi South 10.4 mph - N/A   Clear
6:58 PM 86.0 °F 93.0 °F 73.0 °F 65% 30.03 in 10.0 mi SSE 10.4 mph - N/A   Partly Cloudy
7:58 PM 82.0 °F 86.7 °F 72.0 °F 71% 30.05 in 10.0 mi SSE 6.9 mph - N/A   Partly Cloudy
8:58 PM 80.1 °F 83.8 °F 72.0 °F 76% 30.06 in 10.0 mi South 3.5 mph - N/A   Clear
9:58 PM 79.0 °F - 73.0 °F 82% 30.09 in 10.0 mi South 4.6 mph - N/A   Clear
10:58 PM 78.1 °F - 73.0 °F 84% 30.08 in 10.0 mi SW 4.6 mph - N/A   Clear
11:58 PM 78.1 °F - 73.0 °F 84% 30.07 in 10.0 mi Calm Calm - N/A   Scattered Clouds